Lafayette, LA

3:46 AM CST on February 11, 2016 (GMT -0600)
Lafayette Regional

Weather History for KLFT - November, 2012

Change the Weather History Date:

Friday, November 16, 2012

  Actual Average Record
Temperature  
Mean Temperature 54 °F 62 °F  
Max Temperature 67 °F 72 °F 87 °F (1902)
Min Temperature 41 °F 51 °F 21 °F (1916)
Degree Days  
Heating Degree Days 11 5  
Month to date heating degree days 82 64  
Since 1 July heating degree days 129 100  
Growing Degree Days 4 (Base 50)    
Moisture  
Dew Point 40 °F    
Average Humidity 62    
Maximum Humidity 89    
Minimum Humidity 34    
Precipitation  
Precipitation 0.00 in 0.14 in 3.53 in (1927)
Month to date precipitation 1.05 2.36  
Year to date precipitation 59.04 52.93  
Snow  
Snow 0.00 in 0.00 in 0.00 in ()
Month to date snowfall 0.0 0.0  
Since 1 July snowfall 0.0 0.0  
Since 1 September snowfall 0.0 0.0  
Snow Depth 0.00 in    
Sea Level Pressure  
Sea Level Pressure 30.29 in    
Wind  
Wind Speed 7 mph (NNE)    
Max Wind Speed 20 mph    
Max Gust Speed 26 mph    
Visibility 10 miles    
Events      
T = Trace of Precipitation, MM = Missing Value Source: NWS Daily Summary

Daily Weather History Graph

Daily Weather History Graph

Search for Another Location

Airport or City:

Trip Planner

Search our weather history database for the weather conditions in past years. The results will help you decide how hot, cold, wet, or windy it might be!

Date:

Astronomy

Nov. 16, 2012 Rise Set
Actual Time 6:34 AM CST 5:10 PM CST
Civil Twilight 6:09 AM CST 5:36 PM CST
Nautical Twilight 5:40 AM CST 6:05 PM CST
Astronomical Twilight 5:11 AM CST 6:33 PM CST
Moon 9:26 AM CST (11/16) 8:13 PM CST (11/16)
Length of Visible Light 11h 26m
Length of Day
10h 36m
Waxing Crescent, 12% of the Moon is Illuminated
Nov 16
Waxing Crescent
Nov 20
First Quarter
Nov 28
Full
Dec 6
Last Quarter
Dec 13
New

Hourly Weather History & Observations

Time (CST) Temp. Windchill Dew Point Humidity Pressure Visibility Wind Dir Wind Speed Gust Speed Precip Events Conditions
12:53 AM 48.0 °F - 41.0 °F 77% 30.27 in 10.0 mi North 5.8 mph - N/A   Clear
1:53 AM 46.9 °F - 41.0 °F 80% 30.28 in 10.0 mi North 4.6 mph - N/A   Clear
2:53 AM 46.0 °F 43.9 °F 41.0 °F 83% 30.28 in 10.0 mi North 4.6 mph - N/A   Clear
3:53 AM 45.0 °F 41.8 °F 39.9 °F 82% 30.27 in 10.0 mi North 5.8 mph - N/A   Clear
4:53 AM 43.0 °F 40.3 °F 39.9 °F 89% 30.27 in 10.0 mi NNE 4.6 mph - N/A   Clear
5:53 AM 42.1 °F 39.2 °F 39.0 °F 89% 30.28 in 10.0 mi NNE 4.6 mph - N/A   Clear
6:53 AM 42.1 °F 39.2 °F 39.0 °F 89% 30.29 in 9.0 mi NNE 4.6 mph - N/A   Clear
7:53 AM 46.0 °F 41.9 °F 42.1 °F 86% 30.32 in 10.0 mi NNE 8.1 mph - N/A   Clear
8:53 AM 52.0 °F - 43.0 °F 71% 30.33 in 10.0 mi NE 9.2 mph - N/A   Clear
9:53 AM 57.9 °F - 43.0 °F 58% 30.33 in 10.0 mi NE 8.1 mph - N/A   Clear
10:53 AM 62.1 °F - 41.0 °F 46% 30.32 in 10.0 mi NNE 12.7 mph 19.6 mph N/A   Clear
11:53 AM 64.0 °F - 39.0 °F 40% 30.30 in 10.0 mi NNE 16.1 mph 20.7 mph N/A   Clear
12:53 PM 66.0 °F - 37.9 °F 36% 30.27 in 10.0 mi NNE 13.8 mph - N/A   Clear
1:53 PM 66.9 °F - 37.9 °F 34% 30.25 in 10.0 mi ENE 6.9 mph - N/A   Clear
2:53 PM 66.9 °F - 37.9 °F 34% 30.24 in 10.0 mi North 6.9 mph - N/A   Clear
3:53 PM 66.0 °F - 39.0 °F 37% 30.25 in 10.0 mi NNE 11.5 mph - N/A   Clear
4:53 PM 62.1 °F - 39.0 °F 43% 30.26 in 10.0 mi North 6.9 mph - N/A   Clear
5:53 PM 57.0 °F - 39.9 °F 53% 30.27 in 10.0 mi North 6.9 mph - N/A   Clear
6:53 PM 55.0 °F - 39.9 °F 57% 30.29 in 10.0 mi North 6.9 mph - N/A   Clear
7:53 PM 52.0 °F - 39.0 °F 61% 30.30 in 10.0 mi North 5.8 mph - N/A   Clear
8:53 PM 50.0 °F - 37.9 °F 63% 30.31 in 10.0 mi NNE 5.8 mph - N/A   Clear
9:53 PM 50.0 °F - 37.9 °F 63% 30.33 in 10.0 mi NNW 4.6 mph - N/A   Clear
10:53 PM 46.9 °F - 37.0 °F 68% 30.33 in 10.0 mi NNE 5.8 mph - N/A   Clear
11:53 PM 45.0 °F 41.2 °F 37.0 °F 74% 30.32 in 10.0 mi NNE 6.9 mph - N/A   Clear